HST
1 20580U 90037B   24186.80710137  .00005220  00000-0  24059-3 0  9994
2 20580  28.4671 227.0597 0002437 218.9416 141.1001 15.17975904679710
ISS (ZARYA)
1 25544U 98067A   24187.33936543 -.00002171  00000-0 -30369-4 0  9996
2 25544  51.6384 225.3932 0010337  32.2603  75.0138 15.49573527461367
CXO
1 25867U 99040B   24189.01771441  .00000371  00000-0  00000+0 0  9999
2 25867  41.5905 151.9629 8875041 297.7528   0.0769  0.37805865 25797